Location: Unspecified
(0.0000°N, 0.0000°E)
Time: 12:12:19
(UTC+00:00)

A-11 Canister half - Pass Details

Date: 27 November 2019
Orbit: 1515 x 1685 km, 47.2° (Epoch: 10 December)

Event Time Altitude Azimuth Distance (km) Brightness Sun altitude
Exits shadow 02:12:46 21° 186° (S) 2,991 10.6 -48.7°
Drops below altitude 10° 02:16:03 10° 170° (S) 3,745 11.3 -48.1°
Sets 02:19:34 0° 160° (SSE) 4,708 12.0 -47.3°
